Weather History for Billings, MT

Change the Weather History Date:

Thursday, October 25, 2012

  Actual Average Record
Temperature  
Mean Temperature 26 °F 45 °F  
Max Temperature 27 °F 56 °F 78 °F (1977)
Min Temperature 24 °F 34 °F 18 °F (1997)
Degree Days  
Heating Degree Days 39 20  
Month to date heating degree days 456 394  
Since 1 July heating degree days 521 623  
Cooling Degree Days 0 0  
Month to date cooling degree days 3 0  
Year to date cooling degree days 958 633  
Moisture  
Dew Point 21 °F    
Average Humidity 82    
Maximum Humidity 88    
Minimum Humidity 75    
Precipitation  
Precipitation 0.02 in 0.03 in 0.38 in (1946)
Month to date precipitation 1.12 1.01  
Year to date precipitation 6.20 12.36  
Snow  
Snow 0.40 in 0.20 in 2.20 in (1954)
Month to date snowfall 4.1 3.2  
Since 1 July snowfall 4.1 4.3  
Since 1 September snowfall 4.1 4.3  
Snow Depth 0.00 in    
Sea Level Pressure  
Sea Level Pressure 30.37 in    
Wind  
Wind Speed 7 mph (ENE)    
Max Wind Speed 14 mph    
Max Gust Speed 17 mph    
Visibility 8 miles    
Events Fog , Snow    
T = Trace of Precipitation, MM = Missing Value Source: NWS Daily Summary

Daily Weather History Graph

Daily Weather History Graph

Search for Another Location

Airport:

Trip Planner

Search our weather history database for the weather conditions in past years. The results will help you decide how hot, cold, wet, or windy it might be!

Date:

Astronomy

Oct. 25, 2012 Rise Set
Actual Time 7:45 AM MDT 6:10 PM MDT
Civil Twilight 7:14 AM MDT 6:40 PM MDT
Nautical Twilight 6:39 AM MDT 7:15 PM MDT
Astronomical Twilight 6:05 AM MDT 7:50 PM MDT
Moon 4:07 PM MDT (10/25) 3:33 AM MDT (10/25)
Length of Visible Light 11h 26m
Length of Day
10h 25m
Waxing Gibbous, 85% of the Moon is Illuminated
Oct 25
Waxing Gibbous
Oct 29
Full
Nov 6
Last Quarter
Nov 13
New
Nov 20
First Quarter

Hourly Weather History & Observations

Time (MDT) Temp. Windchill Dew Point Humidity Pressure Visibility Wind Dir Wind Speed Gust Speed Precip Events Conditions
12:53 AM 28.0 °F 20.0 °F 24.1 °F 85% 30.26 in 10.0 mi ENE 8.1 mph - N/A   Mostly Cloudy
1:53 AM 27.0 °F 20.5 °F 23.0 °F 85% 30.27 in 10.0 mi NE 5.8 mph - N/A   Mostly Cloudy
2:03 AM 26.6 °F 21.2 °F 23.0 °F 86% 30.18 in 10.0 mi East 4.6 mph - N/A   Overcast
2:53 AM 27.0 °F 18.7 °F 21.9 °F 81% 30.28 in 10.0 mi NE 8.1 mph - N/A   Overcast
3:53 AM 26.1 °F 17.6 °F 21.0 °F 81% 30.29 in 10.0 mi ENE 8.1 mph - N/A   Overcast
4:53 AM 26.1 °F 15.0 °F 21.0 °F 81% 30.29 in 10.0 mi ENE 12.7 mph - N/A   Overcast
5:53 AM 25.0 °F 15.5 °F 21.0 °F 85% 30.32 in 10.0 mi ENE 9.2 mph - N/A   Overcast
6:17 AM 24.8 °F 14.6 °F 21.2 °F 86% 30.22 in 10.0 mi ENE 10.4 mph - N/A   Overcast
6:42 AM 24.8 °F 14.6 °F 21.2 °F 86% 30.22 in 10.0 mi ENE 10.4 mph - N/A   Overcast
6:53 AM 24.8 °F 14.6 °F 21.2 °F 86% 30.23 in 10.0 mi ENE 10.4 mph - N/A   Overcast
7:17 AM 24.8 °F 14.6 °F 21.2 °F 86% 30.23 in 10.0 mi ENE 10.4 mph - N/A   Overcast
7:53 AM 25.0 °F 14.8 °F 21.0 °F 85% 30.35 in 10.0 mi ENE 10.4 mph - N/A   Overcast
8:36 AM 24.8 °F 16.1 °F 21.2 °F 86% 30.26 in 10.0 mi ENE 8.1 mph - N/A   Overcast
8:53 AM 25.0 °F 14.2 °F 21.9 °F 88% 30.38 in 8.0 mi ENE 11.5 mph - N/A Fog Overcast
9:53 AM 24.1 °F 14.4 °F 21.9 °F 91% 30.40 in 7.0 mi ENE 9.2 mph - N/A   Overcast
10:53 AM 25.0 °F 14.8 °F 21.0 °F 85% 30.41 in 10.0 mi ENE 10.4 mph - 0.00 in Snow Light Snow
11:34 AM 24.8 °F 14.6 °F 21.2 °F 86% 30.29 in 2.0 mi ENE 10.4 mph - 0.00 in Snow Light Snow
11:53 AM 25.0 °F 14.8 °F 21.0 °F 85% 30.42 in 2.0 mi East 10.4 mph - 0.01 in Snow Light Snow
12:08 PM 24.8 °F 14.0 °F 21.2 °F 86% 30.30 in 1.5 mi East 11.5 mph - 0.00 in Snow Light Snow
12:23 PM 24.8 °F 14.6 °F 21.2 °F 86% 30.30 in 2.0 mi ENE 10.4 mph - 0.00 in Snow Light Snow
12:40 PM 26.6 °F 16.8 °F 21.2 °F 80% 30.30 in 4.0 mi ENE 10.4 mph - 0.01 in Snow Light Snow
12:53 PM 26.1 °F 16.2 °F 21.9 °F 84% 30.42 in 6.0 mi ENE 10.4 mph - 0.01 in Snow Light Snow
1:45 PM 26.6 °F 19.1 °F 21.2 °F 80% 30.30 in 10.0 mi NE 6.9 mph - 0.00 in   Overcast
1:53 PM 26.1 °F 16.2 °F 21.0 °F 81% 30.43 in 10.0 mi NE 10.4 mph - 0.00 in   Overcast
2:25 PM 26.6 °F 19.1 °F 19.4 °F 74% 30.31 in 10.0 mi NE 6.9 mph - N/A   Overcast
2:53 PM 26.1 °F 20.5 °F 19.9 °F 78% 30.43 in 10.0 mi Variable 4.6 mph - 0.00 in   Overcast
3:50 PM 26.6 °F 21.2 °F 19.4 °F 74% 30.33 in 1.5 mi NE 4.6 mph - 0.00 in Snow Light Snow
3:51 PM 26.1 °F 20.5 °F 21.0 °F 81% 30.46 in 1.5 mi NE 4.6 mph - 0.00 in Snow Light Snow
3:58 PM 26.6 °F 21.2 °F 21.2 °F 80% 30.33 in 3.0 mi NE 4.6 mph - 0.00 in Snow Light Snow
4:53 PM 26.1 °F 21.9 °F 21.9 °F 84% 30.47 in 9.0 mi East 3.5 mph - 0.00 in   Overcast
5:33 PM 26.6 °F 20.0 °F 21.2 °F 80% 30.35 in 10.0 mi East 5.8 mph - N/A   Overcast
5:53 PM 26.1 °F - 21.9 °F 84% 30.49 in 10.0 mi Calm Calm - N/A   Overcast
6:53 PM 26.1 °F 20.5 °F 21.0 °F 81% 30.50 in 10.0 mi East 4.6 mph - N/A   Overcast
7:53 PM 27.0 °F 21.6 °F 21.0 °F 78% 30.52 in 10.0 mi East 4.6 mph - N/A   Overcast
8:53 PM 26.1 °F 19.4 °F 21.0 °F 81% 30.52 in 10.0 mi SSE 5.8 mph - N/A   Overcast
9:53 PM 26.6 °F 22.6 °F 21.2 °F 80% 30.40 in 10.0 mi SE 3.5 mph - N/A   Overcast
10:53 PM 26.1 °F 20.5 °F 21.0 °F 81% 30.53 in 9.0 mi Variable 4.6 mph - 0.00 in Snow Light Snow
11:53 PM 26.1 °F 21.9 °F 21.0 °F 81% 30.51 in 10.0 mi ENE 3.5 mph - 0.00 in   Overcast